Location: Newark
(49.3000°N, 9.4667°E)
Time: 17:34:53
(UTC+00:00)

Tiros 1 - Pass Details

Date: 02 June 2019
Orbit: 631 x 664 km, 48.4° (Epoch: 24 June)

Event Time Altitude Azimuth Distance (km) Brightness Sun altitude
Rises 09:26:01 0° 272° (W) 2,922 10.2 54.8°
Reaches altitude 10° 09:28:19 10° 271° (W) 2,016 9.5 55.0°
Maximum altitude 09:32:58 80° 185° (S) 651 8.5 55.6°
Drops below altitude 10° 09:37:39 10° 99° (E) 2,032 10.3 56.2°
Sets 09:39:59 0° 98° (E) 2,946 10.9 56.4°
